EET,Max TemperatureF,Mean TemperatureF,Min TemperatureF,Max Dew PointF,MeanDew PointF,Min DewpointF,Max Humidity, Mean Humidity, Min Humidity, Max Sea Level PressureIn, Mean Sea Level PressureIn, Min Sea Level PressureIn, Max VisibilityMiles, Mean VisibilityMiles, Min VisibilityMiles, Max Wind SpeedMPH, Mean Wind SpeedMPH, Max Gust SpeedMPH,PrecipitationIn, CloudCover, Events, WindDirDegrees
2012-11-1,61,49,35,45,43,36,100,80,39,30.21,30.17,30.15,12,7,6,10,2,,0.00,4,,206
2012-11-2,61,46,31,46,41,32,100,83,41,30.21,30.15,30.09,6,6,3,5,0,,0.00,5,,0
2012-11-3,64,48,33,50,43,34,100,78,35,30.18,30.13,30.09,6,6,2,10,2,,0.02,5,Rain,227
2012-11-4,64,52,39,54,46,39,100,83,43,30.24,30.19,30.15,6,5,0,4,1,,0.00,3,Fog-Rain,194
2012-11-5,65,50,35,43,40,36,100,73,22,30.21,30.16,30.12,6,5,1,9,2,,0.00,3,Fog,267
2012-11-6,67,50,32,41,37,32,100,71,22,30.18,30.13,30.09,6,6,6,2,1,,0.00,1,,321
2012-11-7,68,51,34,41,38,34,100,68,22,30.18,30.10,30.04,12,6,4,5,1,,0.00,2,,271
2012-11-8,68,54,39,48,42,37,93,63,22,30.04,30.00,29.95,6,6,6,13,3,,0.02,5,Rain,104
2012-11-9,61,56,51,50,46,43,88,70,49,29.95,29.91,29.83,6,6,6,10,5,,0.08,6,Rain,198
2012-11-10,62,55,48,48,45,40,100,74,43,29.95,29.87,29.80,6,6,6,21,5,,0.04,6,Rain,227
2012-11-11,48,45,42,46,44,41,100,90,76,30.09,30.03,29.95,6,6,6,13,3,,0.43,6,Rain,178
2012-11-12,56,50,43,48,45,43,100,84,56,30.15,30.11,30.09,6,6,6,12,2,,0.04,6,Rain,309
2012-11-13,57,52,46,46,45,41,93,80,56,30.15,30.11,30.06,6,6,6,13,4,,0.00,6,Rain,22
2012-11-14,59,52,44,43,39,37,76,60,32,30.18,30.10,30.06,6,6,6,17,9,,0.00,3,,320
2012-11-15,57,44,32,41,37,32,100,81,37,30.27,30.24,30.18,6,5,2,7,3,,0.00,,,324
2012-11-16,59,42,26,39,33,27,100,80,24,30.33,30.29,30.24,6,2,1,2,0,,0.00,,Fog,190
2012-11-17,58,42,26,37,33,28,100,79,27,30.30,30.25,30.21,6,4,2,2,0,,0.00,,,310
2012-11-18,58,42,26,36,32,27,100,76,25,30.24,30.17,30.12,6,5,2,2,1,,0.00,2,,279
2012-11-19,54,41,28,36,32,28,100,78,31,30.18,30.15,30.09,6,5,4,5,1,,0.00,3,,224
2012-11-20,56,40,25,36,31,27,100,79,28,30.21,30.17,30.12,12,4,2,2,0,,0.00,,,300
2012-11-21,56,40,25,36,33,27,100,78,28,30.21,30.14,30.09,12,5,2,4,0,,0.00,1,,340
2012-11-22,49,39,29,43,37,32,100,88,53,30.15,30.12,30.09,12,6,2,6,1,,0.08,6,Rain,305
2012-11-23,53,44,35,43,40,37,100,85,47,30.12,30.10,30.09,12,5,0,6,2,,0.00,6,Fog,310
2012-11-24,51,45,39,41,38,36,100,79,52,30.09,30.06,30.04,12,6,6,5,1,,0.00,6,Rain,93
2012-11-25,51,44,38,41,40,36,100,84,56,30.06,30.05,30.01,12,6,2,6,1,,0.00,6,Rain,290
2012-11-26,52,42,33,39,36,32,93,72,36,30.12,30.08,30.04,6,6,6,10,3,,0.00,4,,300
2012-11-27,51,38,26,34,31,27,100,83,39,30.21,30.16,30.12,12,6,4,2,1,,0.00,2,,295
2012-11-28,52,37,22,34,29,23,100,83,31,30.30,30.23,30.18,12,5,2,4,0,,0.00,,,287
2012-11-29,49,36,22,32,29,23,100,82,35,30.27,30.20,30.15,12,5,2,4,0,,0.00,4,,130
2012-11-30,53,39,25,34,30,25,100,80,27,30.30,30.24,30.18,12,6,2,6,1,,0.00,3,,54